owner,sensor,date,latitude,longitude,vertical_datum,mass_concentration_of_oxygen_in_sea_water,qcFlag 
DISL,ioos:station:DISL:KATA:1,2011-08-01T00:00:00Z,30.2583,-88.2131,4.251,5.93,1111122 
DISL,ioos:station:DISL:KATA:1,2011-08-01T00:30:00Z,30.2583,-88.2131,4.211,6.3,1111122 
DISL,ioos:station:DISL:KATA:1,2011-08-01T01:00:00Z,30.2583,-88.2131,4.197,6.04,1111122 
DISL,ioos:station:DISL:KATA:1,2011-08-01T01:30:00Z,30.2583,-88.2131,4.226,6.18,1111122 
DISL,ioos:station:DISL:KATA:1,2011-08-01T02:00:00Z,30.2583,-88.2131,4.213,6.09,1111122 
DISL,ioos:station:DISL:KATA:1,2011-08-01T02:30:00Z,30.2583,-88.2131,4.201,5.61,1111122 
DISL,ioos:station:DISL:KATA:1,2011-08-01T03:00:00Z,30.2583,-88.2131,4.221,5.58,1111122 
DISL,ioos:station:DISL:KATA:1,2011-08-01T03:30:00Z,30.2583,-88.2131,4.231,5.39,1111122 
DISL,ioos:station:DISL:KATA:1,2011-08-01T04:00:00Z,30.2583,-88.2131,4.261,4.83,1111122 
DISL,ioos:station:DISL:KATA:1,2011-08-01T04:30:00Z,30.2583,-88.2131,4.274,4.97,1111122 
DISL,ioos:station:DISL:KATA:1,2011-08-01T05:00:00Z,30.2583,-88.2131,4.284,4.84,1111122 
DISL,ioos:station:DISL:KATA:1,2011-08-01T05:30:00Z,30.2583,-88.2131,4.304,4.99,1111122 
DISL,ioos:station:DISL:KATA:1,2011-08-01T06:00:00Z,30.2583,-88.2131,4.343,5.12,1111122 
DISL,ioos:station:DISL:KATA:1,2011-08-01T06:30:00Z,30.2583,-88.2131,4.388,5.34,1111122 
DISL,ioos:station:DISL:KATA:1,2011-08-01T07:00:00Z,30.2583,-88.2131,4.414,5.5,1111122 
DISL,ioos:station:DISL:KATA:1,2011-08-01T07:30:00Z,30.2583,-88.2131,4.428,5.37,1111122 
DISL,ioos:station:DISL:KATA:1,2011-08-01T08:00:00Z,30.2583,-88.2131,4.44,5.31,1111122 
DISL,ioos:station:DISL:KATA:1,2011-08-01T08:30:00Z,30.2583,-88.2131,4.442,5.36,1111122 
DISL,ioos:station:DISL:KATA:1,2011-08-01T09:00:00Z,30.2583,-88.2131,4.42,5.23,1111122 
DISL,ioos:station:DISL:KATA:1,2011-08-01T09:30:00Z,30.2583,-88.2131,4.405,5.22,1111122 
DISL,ioos:station:DISL:KATA:1,2011-08-01T10:00:00Z,30.2583,-88.2131,4.394,5.19,1111122 
DISL,ioos:station:DISL:KATA:1,2011-08-01T10:30:00Z,30.2583,-88.2131,4.401,4.89,1111122 
DISL,ioos:station:DISL:KATA:1,2011-08-01T11:00:00Z,30.2583,-88.2131,4.437,4.87,1111122 
DISL,ioos:station:DISL:KATA:1,2011-08-01T11:30:00Z,30.2583,-88.2131,4.482,4.79,1111122 
DISL,ioos:station:DISL:KATA:1,2011-08-01T12:00:00Z,30.2583,-88.2131,4.52,4.73,1111122 
DISL,ioos:station:DISL:KATA:1,2011-08-01T12:30:00Z,30.2583,-88.2131,4.56,4.68,1111122 
DISL,ioos:station:DISL:KATA:1,2011-08-01T13:00:00Z,30.2583,-88.2131,4.592,4.59,1111122 
DISL,ioos:station:DISL:KATA:1,2011-08-01T13:30:00Z,30.2583,-88.2131,4.609,4.78,1111122 
DISL,ioos:station:DISL:KATA:1,2011-08-01T14:00:00Z,30.2583,-88.2131,4.622,4.64,1111122 
DISL,ioos:station:DISL:KATA:1,2011-08-01T14:30:00Z,30.2583,-88.2131,4.628,4.77,1111122 
DISL,ioos:station:DISL:KATA:1,2011-08-01T15:00:00Z,30.2583,-88.2131,4.636,4.63,1111122 
DISL,ioos:station:DISL:KATA:1,2011-08-01T15:30:00Z,30.2583,-88.2131,4.646,4.53,1111122 
DISL,ioos:station:DISL:KATA:1,2011-08-01T16:00:00Z,30.2583,-88.2131,4.656,4.48,1111122 
DISL,ioos:station:DISL:KATA:1,2011-08-01T16:30:00Z,30.2583,-88.2131,4.656,4.35,1111122 
DISL,ioos:station:DISL:KATA:1,2011-08-01T17:00:00Z,30.2583,-88.2131,4.654,4.13,1111122 
DISL,ioos:station:DISL:KATA:1,2011-08-01T17:30:00Z,30.2583,-88.2131,4.654,4.18,1111122 
DISL,ioos:station:DISL:KATA:1,2011-08-01T18:00:00Z,30.2583,-88.2131,4.66,4.18,1111122 
DISL,ioos:station:DISL:KATA:1,2011-08-01T18:30:00Z,30.2583,-88.2131,4.651,3.86,1111122 
DISL,ioos:station:DISL:KATA:1,2011-08-01T19:00:00Z,30.2583,-88.2131,4.64,4.19,1111122 
DISL,ioos:station:DISL:KATA:1,2011-08-01T19:30:00Z,30.2583,-88.2131,4.624,4.15,1111122 
DISL,ioos:station:DISL:KATA:1,2011-08-01T20:00:00Z,30.2583,-88.2131,4.61,4.2,1111122 
DISL,ioos:station:DISL:KATA:1,2011-08-01T20:30:00Z,30.2583,-88.2131,4.557,4.0,1111122 
DISL,ioos:station:DISL:KATA:1,2011-08-01T21:00:00Z,30.2583,-88.2131,4.492,4.07,1111122 
DISL,ioos:station:DISL:KATA:1,2011-08-01T21:30:00Z,30.2583,-88.2131,4.483,3.99,1111122 
DISL,ioos:station:DISL:KATA:1,2011-08-01T22:00:00Z,30.2583,-88.2131,4.433,4.51,1111122 
DISL,ioos:station:DISL:KATA:1,2011-08-01T22:30:00Z,30.2583,-88.2131,4.383,4.87,1111122 
DISL,ioos:station:DISL:KATA:1,2011-08-01T23:00:00Z,30.2583,-88.2131,4.371,5.04,1111122 
DISL,ioos:station:DISL:KATA:1,2011-08-01T23:30:00Z,30.2583,-88.2131,4.344,5.31,1111122 
DISL,ioos:station:DISL:KATA:1,2011-08-02T00:00:00Z,30.2583,-88.2131,4.3,5.45,1111122 
DISL,ioos:station:DISL:KATA:1,2011-08-02T00:30:00Z,30.2583,-88.2131,4.285,5.75,1111122 
DISL,ioos:station:DISL:KATA:1,2011-08-02T01:00:00Z,30.2583,-88.2131,4.265,5.74,1111122 
DISL,ioos:station:DISL:KATA:1,2011-08-02T01:30:00Z,30.2583,-88.2131,4.28,5.75,1111122 
DISL,ioos:station:DISL:KATA:1,2011-08-02T02:00:00Z,30.2583,-88.2131,4.271,5.69,1111122 
DISL,ioos:station:DISL:KATA:1,2011-08-02T02:30:00Z,30.2583,-88.2131,4.26,5.42,1111122 
DISL,ioos:station:DISL:KATA:1,2011-08-02T03:00:00Z,30.2583,-88.2131,4.284,5.32,1111122 
DISL,ioos:station:DISL:KATA:1,2011-08-02T03:30:00Z,30.2583,-88.2131,4.3,5.07,1111122 
DISL,ioos:station:DISL:KATA:1,2011-08-02T04:00:00Z,30.2583,-88.2131,4.296,5.16,1111122 
DISL,ioos:station:DISL:KATA:1,2011-08-02T04:30:00Z,30.2583,-88.2131,4.292,5.18,1111122 
DISL,ioos:station:DISL:KATA:1,2011-08-02T05:00:00Z,30.2583,-88.2131,4.297,5.37,1111122 
DISL,ioos:station:DISL:KATA:1,2011-08-02T05:30:00Z,30.2583,-88.2131,4.316,5.33,1111122 
DISL,ioos:station:DISL:KATA:1,2011-08-02T06:00:00Z,30.2583,-88.2131,4.318,5.47,1111122 
DISL,ioos:station:DISL:KATA:1,2011-08-02T06:30:00Z,30.2583,-88.2131,4.34,5.5,1111122 
DISL,ioos:station:DISL:KATA:1,2011-08-02T07:00:00Z,30.2583,-88.2131,4.379,5.38,1111122 
DISL,ioos:station:DISL:KATA:1,2011-08-02T07:30:00Z,30.2583,-88.2131,4.413,5.3,1111122 
DISL,ioos:station:DISL:KATA:1,2011-08-02T08:00:00Z,30.2583,-88.2131,4.433,5.14,1111122 
DISL,ioos:station:DISL:KATA:1,2011-08-02T08:30:00Z,30.2583,-88.2131,4.431,5.06,1111122 
DISL,ioos:station:DISL:KATA:1,2011-08-02T09:00:00Z,30.2583,-88.2131,4.44,4.5,1111122 
DISL,ioos:station:DISL:KATA:1,2011-08-02T09:30:00Z,30.2583,-88.2131,4.444,4.29,1111122 
DISL,ioos:station:DISL:KATA:1,2011-08-02T10:00:00Z,30.2583,-88.2131,4.422,3.82,1111122 
DISL,ioos:station:DISL:KATA:1,2011-08-02T10:30:00Z,30.2583,-88.2131,4.407,3.67,1111122 
DISL,ioos:station:DISL:KATA:1,2011-08-02T11:00:00Z,30.2583,-88.2131,4.4,3.66,1111122 
DISL,ioos:station:DISL:KATA:1,2011-08-02T11:30:00Z,30.2583,-88.2131,4.379,3.54,1111122 
DISL,ioos:station:DISL:KATA:1,2011-08-02T12:00:00Z,30.2583,-88.2131,4.384,3.57,1111122 
DISL,ioos:station:DISL:KATA:1,2011-08-02T12:30:00Z,30.2583,-88.2131,4.399,3.75,1111122 
DISL,ioos:station:DISL:KATA:1,2011-08-02T13:00:00Z,30.2583,-88.2131,4.423,3.8,1111122 
DISL,ioos:station:DISL:KATA:1,2011-08-02T13:30:00Z,30.2583,-88.2131,4.44,3.98,1111122 
DISL,ioos:station:DISL:KATA:1,2011-08-02T14:00:00Z,30.2583,-88.2131,4.46,4.06,1111122 
DISL,ioos:station:DISL:KATA:1,2011-08-02T14:30:00Z,30.2583,-88.2131,4.478,3.67,1111122 
DISL,ioos:station:DISL:KATA:1,2011-08-02T15:00:00Z,30.2583,-88.2131,4.505,4.39,1111122 
DISL,ioos:station:DISL:KATA:1,2011-08-02T15:30:00Z,30.2583,-88.2131,4.541,4.04,1111122 
DISL,ioos:station:DISL:KATA:1,2011-08-02T16:00:00Z,30.2583,-88.2131,4.561,3.88,1111122 
DISL,ioos:station:DISL:KATA:1,2011-08-02T16:30:00Z,30.2583,-88.2131,4.579,4.24,1111122 
DISL,ioos:station:DISL:KATA:1,2011-08-02T17:00:00Z,30.2583,-88.2131,4.585,4.39,1111122 
DISL,ioos:station:DISL:KATA:1,2011-08-02T17:30:00Z,30.2583,-88.2131,4.568,4.17,1111122 
DISL,ioos:station:DISL:KATA:1,2011-08-02T18:00:00Z,30.2583,-88.2131,4.556,4.24,1111122 
DISL,ioos:station:DISL:KATA:1,2011-08-02T18:30:00Z,30.2583,-88.2131,4.532,4.44,1111122 
DISL,ioos:station:DISL:KATA:1,2011-08-02T19:00:00Z,30.2583,-88.2131,4.517,4.1,1111122 
DISL,ioos:station:DISL:KATA:1,2011-08-02T19:30:00Z,30.2583,-88.2131,4.521,4.23,1111122 
DISL,ioos:station:DISL:KATA:1,2011-08-02T20:00:00Z,30.2583,-88.2131,4.522,4.03,1111122 
DISL,ioos:station:DISL:KATA:1,2011-08-02T20:30:00Z,30.2583,-88.2131,4.534,3.87,1111122 
DISL,ioos:station:DISL:KATA:1,2011-08-02T21:00:00Z,30.2583,-88.2131,4.545,3.85,1111122 
DISL,ioos:station:DISL:KATA:1,2011-08-02T21:30:00Z,30.2583,-88.2131,4.52,4.16,1111122 
DISL,ioos:station:DISL:KATA:1,2011-08-02T22:00:00Z,30.2583,-88.2131,4.506,4.1,1111122 
DISL,ioos:station:DISL:KATA:1,2011-08-02T22:30:00Z,30.2583,-88.2131,4.47,3.99,1111122 
DISL,ioos:station:DISL:KATA:1,2011-08-02T23:00:00Z,30.2583,-88.2131,4.421,4.07,1111122 
DISL,ioos:station:DISL:KATA:1,2011-08-02T23:30:00Z,30.2583,-88.2131,4.389,4.27,1111122 
DISL,ioos:station:DISL:KATA:1,2011-08-03T00:00:00Z,30.2583,-88.2131,4.361,4.19,1111122 
DISL,ioos:station:DISL:KATA:1,2011-08-03T00:30:00Z,30.2583,-88.2131,4.341,3.9,1111122 
DISL,ioos:station:DISL:KATA:1,2011-08-03T01:00:00Z,30.2583,-88.2131,4.336,3.66,1111122 
DISL,ioos:station:DISL:KATA:1,2011-08-03T01:30:00Z,30.2583,-88.2131,4.344,3.69,1111122 
DISL,ioos:station:DISL:KATA:1,2011-08-03T02:00:00Z,30.2583,-88.2131,4.374,3.55,1111122 
DISL,ioos:station:DISL:KATA:1,2011-08-03T02:30:00Z,30.2583,-88.2131,4.375,3.68,1111122 
DISL,ioos:station:DISL:KATA:1,2011-08-03T03:00:00Z,30.2583,-88.2131,4.402,3.34,1111122 
DISL,ioos:station:DISL:KATA:1,2011-08-03T03:30:00Z,30.2583,-88.2131,4.419,3.04,1111122 
DISL,ioos:station:DISL:KATA:1,2011-08-03T04:00:00Z,30.2583,-88.2131,4.435,3.08,1111122 
DISL,ioos:station:DISL:KATA:1,2011-08-03T04:30:00Z,30.2583,-88.2131,4.447,2.87,1111122 
DISL,ioos:station:DISL:KATA:1,2011-08-03T05:00:00Z,30.2583,-88.2131,4.441,2.51,1111122 
DISL,ioos:station:DISL:KATA:1,2011-08-03T05:30:00Z,30.2583,-88.2131,4.444,2.93,1111122 
DISL,ioos:station:DISL:KATA:1,2011-08-03T06:00:00Z,30.2583,-88.2131,4.435,2.88,1111122 
DISL,ioos:station:DISL:KATA:1,2011-08-03T06:30:00Z,30.2583,-88.2131,4.433,3.25,1111122 
DISL,ioos:station:DISL:KATA:1,2011-08-03T07:00:00Z,30.2583,-88.2131,4.427,3.3,1111122 
DISL,ioos:station:DISL:KATA:1,2011-08-03T07:30:00Z,30.2583,-88.2131,4.43,3.27,1111122 
DISL,ioos:station:DISL:KATA:1,2011-08-03T08:00:00Z,30.2583,-88.2131,4.438,3.24,1111122 
DISL,ioos:station:DISL:KATA:1,2011-08-03T08:30:00Z,30.2583,-88.2131,4.454,3.15,1111122 
DISL,ioos:station:DISL:KATA:1,2011-08-03T09:00:00Z,30.2583,-88.2131,4.474,3.32,1111122 
DISL,ioos:station:DISL:KATA:1,2011-08-03T09:30:00Z,30.2583,-88.2131,4.48,3.15,1111122 
DISL,ioos:station:DISL:KATA:1,2011-08-03T10:00:00Z,30.2583,-88.2131,4.48,2.82,1111122 
DISL,ioos:station:DISL:KATA:1,2011-08-03T10:30:00Z,30.2583,-88.2131,4.453,2.6,1111122 
DISL,ioos:station:DISL:KATA:1,2011-08-03T11:00:00Z,30.2583,-88.2131,4.413,3.09,1111122 
DISL,ioos:station:DISL:KATA:1,2011-08-03T11:30:00Z,30.2583,-88.2131,4.381,2.99,1111122 
DISL,ioos:station:DISL:KATA:1,2011-08-03T12:00:00Z,30.2583,-88.2131,4.364,3.52,1111122 
DISL,ioos:station:DISL:KATA:1,2011-08-03T12:30:00Z,30.2583,-88.2131,4.354,3.78,1111122 
DISL,ioos:station:DISL:KATA:1,2011-08-03T13:00:00Z,30.2583,-88.2131,4.345,4.26,1111122 
DISL,ioos:station:DISL:KATA:1,2011-08-03T13:30:00Z,30.2583,-88.2131,4.355,3.9,1111122 
DISL,ioos:station:DISL:KATA:1,2011-08-03T14:00:00Z,30.2583,-88.2131,4.368,3.34,1111122 
DISL,ioos:station:DISL:KATA:1,2011-08-03T14:30:00Z,30.2583,-88.2131,4.385,3.85,1111122 
DISL,ioos:station:DISL:KATA:1,2011-08-03T15:00:00Z,30.2583,-88.2131,4.403,3.79,1111122 
DISL,ioos:station:DISL:KATA:1,2011-08-03T15:30:00Z,30.2583,-88.2131,4.429,3.27,1111122 
DISL,ioos:station:DISL:KATA:1,2011-08-03T16:00:00Z,30.2583,-88.2131,4.441,2.93,1111122 
DISL,ioos:station:DISL:KATA:1,2011-08-03T16:30:00Z,30.2583,-88.2131,4.452,3.14,1111122 
DISL,ioos:station:DISL:KATA:1,2011-08-03T17:00:00Z,30.2583,-88.2131,4.453,2.97,1111122 
DISL,ioos:station:DISL:KATA:1,2011-08-03T17:30:00Z,30.2583,-88.2131,4.449,3.18,1111122 
DISL,ioos:station:DISL:KATA:1,2011-08-03T18:00:00Z,30.2583,-88.2131,4.443,3.25,1111122 
DISL,ioos:station:DISL:KATA:1,2011-08-03T18:30:00Z,30.2583,-88.2131,4.435,3.1,1111122 
DISL,ioos:station:DISL:KATA:1,2011-08-03T19:00:00Z,30.2583,-88.2131,4.439,3.1,1111122 
DISL,ioos:station:DISL:KATA:1,2011-08-03T19:30:00Z,30.2583,-88.2131,4.451,3.13,1111122 
DISL,ioos:station:DISL:KATA:1,2011-08-03T20:00:00Z,30.2583,-88.2131,4.459,2.92,1111122 
DISL,ioos:station:DISL:KATA:1,2011-08-03T20:30:00Z,30.2583,-88.2131,4.47,3.12,1111122 
DISL,ioos:station:DISL:KATA:1,2011-08-03T21:00:00Z,30.2583,-88.2131,4.478,3.12,1111122 
DISL,ioos:station:DISL:KATA:1,2011-08-03T21:30:00Z,30.2583,-88.2131,4.483,3.28,1111122 
DISL,ioos:station:DISL:KATA:1,2011-08-03T22:00:00Z,30.2583,-88.2131,4.484,2.63,1111122 
DISL,ioos:station:DISL:KATA:1,2011-08-03T22:30:00Z,30.2583,-88.2131,4.466,2.63,1111122 
DISL,ioos:station:DISL:KATA:1,2011-08-03T23:00:00Z,30.2583,-88.2131,4.452,2.66,1111122 
DISL,ioos:station:DISL:KATA:1,2011-08-03T23:30:00Z,30.2583,-88.2131,4.434,3.04,1111122 
DISL,ioos:station:DISL:KATA:1,2011-08-04T00:00:00Z,30.2583,-88.2131,4.416,3.14,1111122 
DISL,ioos:station:DISL:KATA:1,2011-08-04T00:30:00Z,30.2583,-88.2131,4.402,3.09,1111122 
DISL,ioos:station:DISL:KATA:1,2011-08-04T01:00:00Z,30.2583,-88.2131,4.402,3.23,1111122 
DISL,ioos:station:DISL:KATA:1,2011-08-04T01:30:00Z,30.2583,-88.2131,4.414,3.07,1111122 
DISL,ioos:station:DISL:KATA:1,2011-08-04T02:00:00Z,30.2583,-88.2131,4.432,2.94,1111122 
DISL,ioos:station:DISL:KATA:1,2011-08-04T02:30:00Z,30.2583,-88.2131,4.46,2.51,1111122 
DISL,ioos:station:DISL:KATA:1,2011-08-04T03:00:00Z,30.2583,-88.2131,4.483,2.17,1111122 
DISL,ioos:station:DISL:KATA:1,2011-08-04T03:30:00Z,30.2583,-88.2131,4.501,4.29,1111122 
DISL,ioos:station:DISL:KATA:1,2011-08-04T04:00:00Z,30.2583,-88.2131,4.524,4.13,1111122 
DISL,ioos:station:DISL:KATA:1,2011-08-04T04:30:00Z,30.2583,-88.2131,4.534,4.7,1111122 
DISL,ioos:station:DISL:KATA:1,2011-08-04T05:00:00Z,30.2583,-88.2131,4.541,4.72,1111122 
DISL,ioos:station:DISL:KATA:1,2011-08-04T05:30:00Z,30.2583,-88.2131,4.546,4.7,1111122 
DISL,ioos:station:DISL:KATA:1,2011-08-04T06:00:00Z,30.2583,-88.2131,4.542,4.48,1111122 
DISL,ioos:station:DISL:KATA:1,2011-08-04T06:30:00Z,30.2583,-88.2131,4.541,4.46,1111122 
DISL,ioos:station:DISL:KATA:1,2011-08-04T07:00:00Z,30.2583,-88.2131,4.544,4.43,1111122 
DISL,ioos:station:DISL:KATA:1,2011-08-04T07:30:00Z,30.2583,-88.2131,4.551,4.1,1111122 
DISL,ioos:station:DISL:KATA:1,2011-08-04T08:00:00Z,30.2583,-88.2131,4.552,4.18,1111122 
DISL,ioos:station:DISL:KATA:1,2011-08-04T08:30:00Z,30.2583,-88.2131,4.549,4.18,1111122 
DISL,ioos:station:DISL:KATA:1,2011-08-04T09:00:00Z,30.2583,-88.2131,4.546,4.21,1111122 
DISL,ioos:station:DISL:KATA:1,2011-08-04T09:30:00Z,30.2583,-88.2131,4.545,4.04,1111122 
DISL,ioos:station:DISL:KATA:1,2011-08-04T10:00:00Z,30.2583,-88.2131,4.538,3.88,1111122 
DISL,ioos:station:DISL:KATA:1,2011-08-04T10:30:00Z,30.2583,-88.2131,4.533,3.48,1111122 
DISL,ioos:station:DISL:KATA:1,2011-08-04T11:00:00Z,30.2583,-88.2131,4.519,3.27,1111122 
DISL,ioos:station:DISL:KATA:1,2011-08-04T11:30:00Z,30.2583,-88.2131,4.492,3.64,1111122 
DISL,ioos:station:DISL:KATA:1,2011-08-04T12:00:00Z,30.2583,-88.2131,4.458,3.71,1111122 
DISL,ioos:station:DISL:KATA:1,2011-08-04T12:30:00Z,30.2583,-88.2131,4.417,3.68,1111122 
DISL,ioos:station:DISL:KATA:1,2011-08-04T13:00:00Z,30.2583,-88.2131,4.383,4.06,1111122 
DISL,ioos:station:DISL:KATA:1,2011-08-04T13:30:00Z,30.2583,-88.2131,4.361,3.96,1111122 
DISL,ioos:station:DISL:KATA:1,2011-08-04T14:00:00Z,30.2583,-88.2131,4.34,4.1,1111122 
DISL,ioos:station:DISL:KATA:1,2011-08-04T14:30:00Z,30.2583,-88.2131,4.33,4.15,1111122 
DISL,ioos:station:DISL:KATA:1,2011-08-04T15:00:00Z,30.2583,-88.2131,4.327,3.94,1111122 
DISL,ioos:station:DISL:KATA:1,2011-08-04T15:30:00Z,30.2583,-88.2131,4.326,3.81,1111122 
DISL,ioos:station:DISL:KATA:1,2011-08-04T16:00:00Z,30.2583,-88.2131,4.33,3.81,1111122 
DISL,ioos:station:DISL:KATA:1,2011-08-04T16:30:00Z,30.2583,-88.2131,4.338,3.77,1111122 
DISL,ioos:station:DISL:KATA:1,2011-08-04T17:00:00Z,30.2583,-88.2131,4.335,3.7,1111122 
DISL,ioos:station:DISL:KATA:1,2011-08-04T17:30:00Z,30.2583,-88.2131,4.348,3.35,1111122 
DISL,ioos:station:DISL:KATA:1,2011-08-04T18:00:00Z,30.2583,-88.2131,4.351,3.61,1111122 
DISL,ioos:station:DISL:KATA:1,2011-08-04T18:30:00Z,30.2583,-88.2131,4.352,3.41,1111122 
DISL,ioos:station:DISL:KATA:1,2011-08-04T19:00:00Z,30.2583,-88.2131,4.341,3.51,1111122 
DISL,ioos:station:DISL:KATA:1,2011-08-04T19:30:00Z,30.2583,-88.2131,4.319,3.47,1111122 
DISL,ioos:station:DISL:KATA:1,2011-08-04T20:00:00Z,30.2583,-88.2131,4.308,3.53,1111122 
DISL,ioos:station:DISL:KATA:1,2011-08-04T20:30:00Z,30.2583,-88.2131,4.307,3.37,1111122 
DISL,ioos:station:DISL:KATA:1,2011-08-04T21:00:00Z,30.2583,-88.2131,4.317,3.53,1111122 
DISL,ioos:station:DISL:KATA:1,2011-08-04T21:30:00Z,30.2583,-88.2131,4.344,3.43,1111122 
DISL,ioos:station:DISL:KATA:1,2011-08-04T22:00:00Z,30.2583,-88.2131,4.36,3.17,1111122 
DISL,ioos:station:DISL:KATA:1,2011-08-04T22:30:00Z,30.2583,-88.2131,4.383,3.12,1111122 
DISL,ioos:station:DISL:KATA:1,2011-08-04T23:00:00Z,30.2583,-88.2131,4.385,2.95,1111122 
DISL,ioos:station:DISL:KATA:1,2011-08-04T23:30:00Z,30.2583,-88.2131,4.397,2.72,1111122 
DISL,ioos:station:DISL:KATA:1,2011-08-05T00:00:00Z,30.2583,-88.2131,4.401,2.55,1111122 
DISL,ioos:station:DISL:KATA:1,2011-08-05T00:30:00Z,30.2583,-88.2131,4.397,2.75,1111122 
DISL,ioos:station:DISL:KATA:1,2011-08-05T01:00:00Z,30.2583,-88.2131,4.395,2.81,1111122 
DISL,ioos:station:DISL:KATA:1,2011-08-05T01:30:00Z,30.2583,-88.2131,4.398,2.8,1111122 
DISL,ioos:station:DISL:KATA:1,2011-08-05T02:00:00Z,30.2583,-88.2131,4.418,2.67,1111122 
DISL,ioos:station:DISL:KATA:1,2011-08-05T02:30:00Z,30.2583,-88.2131,4.436,2.74,1111122 
DISL,ioos:station:DISL:KATA:1,2011-08-05T03:00:00Z,30.2583,-88.2131,4.459,3.57,1111122 
DISL,ioos:station:DISL:KATA:1,2011-08-05T03:30:00Z,30.2583,-88.2131,4.492,4.11,1111122 
DISL,ioos:station:DISL:KATA:1,2011-08-05T04:00:00Z,30.2583,-88.2131,4.53,4.29,1111122 
DISL,ioos:station:DISL:KATA:1,2011-08-05T04:30:00Z,30.2583,-88.2131,4.606,4.9,1111122 
DISL,ioos:station:DISL:KATA:1,2011-08-05T05:00:00Z,30.2583,-88.2131,4.548,4.82,1111122 
DISL,ioos:station:DISL:KATA:1,2011-08-05T05:30:00Z,30.2583,-88.2131,4.55,5.01,1111122 
DISL,ioos:station:DISL:KATA:1,2011-08-05T06:00:00Z,30.2583,-88.2131,4.411,5.07,1111122 
DISL,ioos:station:DISL:KATA:1,2011-08-05T06:30:00Z,30.2583,-88.2131,4.341,4.67,1111122 
DISL,ioos:station:DISL:KATA:1,2011-08-05T07:00:00Z,30.2583,-88.2131,4.331,4.41,1111122 
DISL,ioos:station:DISL:KATA:1,2011-08-05T07:30:00Z,30.2583,-88.2131,4.378,4.0,1111122 
DISL,ioos:station:DISL:KATA:1,2011-08-05T08:00:00Z,30.2583,-88.2131,4.412,3.84,1111122 
DISL,ioos:station:DISL:KATA:1,2011-08-05T08:30:00Z,30.2583,-88.2131,4.461,3.96,1111122 
DISL,ioos:station:DISL:KATA:1,2011-08-05T09:00:00Z,30.2583,-88.2131,4.511,4.03,1111122 
DISL,ioos:station:DISL:KATA:1,2011-08-05T09:30:00Z,30.2583,-88.2131,4.527,3.91,1111122 
DISL,ioos:station:DISL:KATA:1,2011-08-05T10:00:00Z,30.2583,-88.2131,4.605,3.96,1111122 
DISL,ioos:station:DISL:KATA:1,2011-08-05T10:30:00Z,30.2583,-88.2131,4.665,4.08,1111122 
DISL,ioos:station:DISL:KATA:1,2011-08-05T11:00:00Z,30.2583,-88.2131,4.693,3.92,1111122 
DISL,ioos:station:DISL:KATA:1,2011-08-05T11:30:00Z,30.2583,-88.2131,4.708,3.7,1111122 
DISL,ioos:station:DISL:KATA:1,2011-08-05T12:00:00Z,30.2583,-88.2131,4.662,3.55,1111122 
DISL,ioos:station:DISL:KATA:1,2011-08-05T12:30:00Z,30.2583,-88.2131,4.576,3.1,1111122 
DISL,ioos:station:DISL:KATA:1,2011-08-05T13:00:00Z,30.2583,-88.2131,4.466,3.49,1111122 
DISL,ioos:station:DISL:KATA:1,2011-08-05T13:30:00Z,30.2583,-88.2131,4.369,3.69,1111122 
DISL,ioos:station:DISL:KATA:1,2011-08-05T14:00:00Z,30.2583,-88.2131,4.323,3.82,1111122 
DISL,ioos:station:DISL:KATA:1,2011-08-05T14:30:00Z,30.2583,-88.2131,4.279,3.92,1111122 
DISL,ioos:station:DISL:KATA:1,2011-08-05T15:00:00Z,30.2583,-88.2131,4.258,3.98,1111122 
DISL,ioos:station:DISL:KATA:1,2011-08-05T15:30:00Z,30.2583,-88.2131,4.265,3.97,1111122 
DISL,ioos:station:DISL:KATA:1,2011-08-05T16:00:00Z,30.2583,-88.2131,4.248,3.87,1111122 
DISL,ioos:station:DISL:KATA:1,2011-08-05T16:30:00Z,30.2583,-88.2131,4.252,3.85,1111122 
DISL,ioos:station:DISL:KATA:1,2011-08-05T17:00:00Z,30.2583,-88.2131,4.245,3.77,1111122 
DISL,ioos:station:DISL:KATA:1,2011-08-05T17:30:00Z,30.2583,-88.2131,4.233,3.77,1111122 
DISL,ioos:station:DISL:KATA:1,2011-08-05T18:00:00Z,30.2583,-88.2131,4.216,3.86,1111122 
DISL,ioos:station:DISL:KATA:1,2011-08-05T18:30:00Z,30.2583,-88.2131,4.204,3.76,1111122 
DISL,ioos:station:DISL:KATA:1,2011-08-05T19:00:00Z,30.2583,-88.2131,4.2,3.67,1111122 
DISL,ioos:station:DISL:KATA:1,2011-08-05T19:30:00Z,30.2583,-88.2131,4.207,3.45,1111122 
DISL,ioos:station:DISL:KATA:1,2011-08-05T20:00:00Z,30.2583,-88.2131,4.213,3.15,1111122 
DISL,ioos:station:DISL:KATA:1,2011-08-05T20:30:00Z,30.2583,-88.2131,4.233,3.32,1111122 
DISL,ioos:station:DISL:KATA:1,2011-08-05T21:00:00Z,30.2583,-88.2131,4.244,3.42,1111122 
DISL,ioos:station:DISL:KATA:1,2011-08-05T21:30:00Z,30.2583,-88.2131,4.271,3.33,1111122 
DISL,ioos:station:DISL:KATA:1,2011-08-05T22:00:00Z,30.2583,-88.2131,4.284,3.41,1111122 
DISL,ioos:station:DISL:KATA:1,2011-08-05T22:30:00Z,30.2583,-88.2131,4.308,3.27,1111122 
DISL,ioos:station:DISL:KATA:1,2011-08-05T23:00:00Z,30.2583,-88.2131,4.323,3.22,1111122 
DISL,ioos:station:DISL:KATA:1,2011-08-05T23:30:00Z,30.2583,-88.2131,4.348,3.11,1111122 
DISL,ioos:station:DISL:KATA:1,2011-08-06T00:00:00Z,30.2583,-88.2131,4.373,2.97,1111122 
DISL,ioos:station:DISL:KATA:1,2011-08-06T00:30:00Z,30.2583,-88.2131,4.382,3.05,1111122 
DISL,ioos:station:DISL:KATA:1,2011-08-06T01:00:00Z,30.2583,-88.2131,4.399,2.98,1111122 
DISL,ioos:station:DISL:KATA:1,2011-08-06T01:30:00Z,30.2583,-88.2131,4.423,3.28,1111122 
DISL,ioos:station:DISL:KATA:1,2011-08-06T02:00:00Z,30.2583,-88.2131,4.42,3.57,1111122 
DISL,ioos:station:DISL:KATA:1,2011-08-06T02:30:00Z,30.2583,-88.2131,4.445,3.86,1111122 
DISL,ioos:station:DISL:KATA:1,2011-08-06T03:00:00Z,30.2583,-88.2131,4.463,3.54,1111122 
DISL,ioos:station:DISL:KATA:1,2011-08-06T03:30:00Z,30.2583,-88.2131,4.465,3.63,1111122 
DISL,ioos:station:DISL:KATA:1,2011-08-06T04:00:00Z,30.2583,-88.2131,4.469,3.6,1111122 
DISL,ioos:station:DISL:KATA:1,2011-08-06T04:30:00Z,30.2583,-88.2131,4.49,3.56,1111122 
DISL,ioos:station:DISL:KATA:1,2011-08-06T05:00:00Z,30.2583,-88.2131,4.52,3.4,1111122 
DISL,ioos:station:DISL:KATA:1,2011-08-06T05:30:00Z,30.2583,-88.2131,4.572,3.34,1111122 
DISL,ioos:station:DISL:KATA:1,2011-08-06T06:00:00Z,30.2583,-88.2131,4.616,3.58,1111122 
DISL,ioos:station:DISL:KATA:1,2011-08-06T06:30:00Z,30.2583,-88.2131,4.648,3.35,1111122 
DISL,ioos:station:DISL:KATA:1,2011-08-06T07:00:00Z,30.2583,-88.2131,4.679,3.13,1111122 
DISL,ioos:station:DISL:KATA:1,2011-08-06T07:30:00Z,30.2583,-88.2131,4.697,3.32,1111122 
DISL,ioos:station:DISL:KATA:1,2011-08-06T08:00:00Z,30.2583,-88.2131,4.706,3.23,1111122 
DISL,ioos:station:DISL:KATA:1,2011-08-06T08:30:00Z,30.2583,-88.2131,4.712,3.18,1111122 
DISL,ioos:station:DISL:KATA:1,2011-08-06T09:00:00Z,30.2583,-88.2131,4.711,3.02,1111122 
DISL,ioos:station:DISL:KATA:1,2011-08-06T09:30:00Z,30.2583,-88.2131,4.7,2.86,1111122 
DISL,ioos:station:DISL:KATA:1,2011-08-06T10:00:00Z,30.2583,-88.2131,4.682,2.79,1111122 
DISL,ioos:station:DISL:KATA:1,2011-08-06T10:30:00Z,30.2583,-88.2131,4.675,2.75,1111122 
DISL,ioos:station:DISL:KATA:1,2011-08-06T11:00:00Z,30.2583,-88.2131,4.654,2.31,1111122 
DISL,ioos:station:DISL:KATA:1,2011-08-06T11:30:00Z,30.2583,-88.2131,4.63,2.4,1111122 
DISL,ioos:station:DISL:KATA:1,2011-08-06T12:00:00Z,30.2583,-88.2131,4.605,2.59,1111122 
DISL,ioos:station:DISL:KATA:1,2011-08-06T12:30:00Z,30.2583,-88.2131,4.571,2.83,1111122 
DISL,ioos:station:DISL:KATA:1,2011-08-06T13:00:00Z,30.2583,-88.2131,4.539,3.03,1111122 
DISL,ioos:station:DISL:KATA:1,2011-08-06T13:30:00Z,30.2583,-88.2131,4.504,2.93,1111122 
DISL,ioos:station:DISL:KATA:1,2011-08-06T14:00:00Z,30.2583,-88.2131,4.456,3.07,1111122 
DISL,ioos:station:DISL:KATA:1,2011-08-06T14:30:00Z,30.2583,-88.2131,4.405,3.16,1111122 
DISL,ioos:station:DISL:KATA:1,2011-08-06T15:00:00Z,30.2583,-88.2131,4.352,3.44,1111122 
DISL,ioos:station:DISL:KATA:1,2011-08-06T15:30:00Z,30.2583,-88.2131,4.311,3.23,1111122 